Retour au catalogue

ALOS-4

ActifScienceSSO
NORAD 60182·PAYLOAD·🇯🇵 Japan

Lancé Jul 1, 2024 depuis Tanegashima Space Center

Loading…

Prochains Passages (prochaines 24 heures)

TLE

FraisSource: Space-Track

Époque: Sep 14, 2026, 21:46 UTC

1 60182U 24123A   26257.90730632  .00001089  00000-0  15262-3 0  9998
2 60182  97.9220 353.7915 0001500  98.4413 261.6968 14.79474259119142

Suivez ALOS-4 en temps réel avec AllMySat

Download on the App Store